Погода в Домашке

Россия / Самарская область     52°59′06″N   50°46′24″E
темп.,
°C
ветер,
м/с
пор.,
м/с
влажн.,
%
обл.,
%
осадки,
мм/ч
давл.,
гПа
погр.,
м
28 января, чт
чт2801:00−8ююв5128995 0.0 1025330
04:00−9ююв5129195 0.0 1023278
07:00−9ююв5129295 0.0 1023297
10:00−8ююв5119297 0.0 1022333
13:00−6ююв61191100 0.0 1021386
16:00−6юв41091100 0.0 1020370
19:00−8юв41092100 0.0 1019258
22:00−8юв4892100 0.0 1019211
29 января, пт
пт2901:00−7юв41092100 0.0 1017292
04:00−6юв4993100 0.0 1016350
07:00−6юв51093100 0.0 1015340
10:00−5юв41093100 0.0 1014418
13:00−3юв4892100 0.0 1013408
16:00−2ююв5997100 1.1 1011518
19:00−3юв3897100 0.7 1011286
22:00−3ююв4896100 0.9 1010281
30 января, сб
сб3001:00−3ю4897100 0.3 1010254
04:00−3ююз3596100 0.4 1010119
07:00−6ююз349497 0.0 100979
10:00−6ююз5119249 0.0 1010247
13:00−2ю6129265 0.0 1010447
16:000ююз8149383 0.1 1009771
19:00+1юз71398100 0.3 1010645
22:00+1юз71398100 0.6 1012670
31 января, вс
вс3101:00+1юз61298100 0.2 1013582
04:00+1ююз61197100 0.2 1014460
07:00−2ю51190100 0.1 1014297
10:00−3ю61186100 0.1 1014275
13:00−2ю61482100 0.0 1015423
16:00−2ююв71779100 0.0 1013532
19:00−2ююв9227596 0.0 1011570
22:00−3ю11208398 0.0 1009663
1 февраля, пн
пн101:00+1ю101896100 0.6 1008776
04:00+1юз91594100 0.9 10101063
07:00−4юз6148868 0.0 1012411
10:00−6юз6119236 0.0 1016352
13:00−5юз6109039 0.0 1019460
16:00−6юз489243 0.0 1021250
19:00−9ююз449499 0.0 102380
22:00−9ю369281 0.0 1023103